Location: Borovka
(49.7741°N, 14.5280°E)
Time: 09:40:43
(UTC+00:00)

BlueWalker 3 - Pass Details

Date: 27 January 2026
Orbit: 450 x 461 km, 53.2° (Epoch: 11 February)

Event Time Altitude Azimuth Distance (km) Brightness Sun altitude
Rises 17:02:21 0° 252° (WSW) 2,454 7.6 -12.0°
Reaches altitude 10° 17:04:29 10° 254° (WSW) 1,582 6.0 -12.3°
Maximum altitude 17:08:02 75° 339° (NNW) 471 1.7 -12.8°
Enters shadow 17:10:09 23° 63° (ENE) 1,014 2.9 -13.2°
